Location: Newark
(48.0000°N, 67.0000°E)
Time: 10:58:57
(UTC+00:00)

N. Korean satellite - Pass Details

Date: 30 January 2020
Orbit: 456 x 505 km, 97.2° (Epoch: 19 February)

Event Time Altitude Azimuth Distance (km) Brightness Sun altitude
Rises 01:58:31 0° 5° (N) 2,553 10.1 -11.0°
Reaches altitude 10° 02:00:39 10° 358° (N) 1,677 9.1 -10.6°
Maximum altitude 02:04:01 38° 289° (WNW) 762 7.0 -10.1°
Drops below altitude 10° 02:07:25 10° 220° (SW) 1,689 9.1 -9.5°
Sets 02:09:34 0° 212° (SSW) 2,574 10.1 -9.2°
